Regional Weather Roundup
Issued by NWS

Home | Current Version | Previous Version | Text Only | Print | Product List | Glossary On
Versions: 1 2 3 4 5 6 7 8 9 10 11 12 13 14 15 16 17 18 19 20 21 22 23 24 25 26 27 28 29 30 31 32 33 34 35 36 37 38 39 40 41 42 43 44 45 46 47 48 49 50
000
ASUS44 KBMX 240910
RWRAL

ALABAMA REGIONAL WEATHER ROUNDUP
NATIONAL WEATHER SERVICE BIRMINGHAM AL
300 AM CST TUE JAN 24 2017

NOTE: "FAIR" INDICATES FEW OR NO CLOUDS BELOW 12,000 FEET
WITH NO SIGNIFICANT WEATHER AND/OR OBSTRUCTIONS TO VISIBILITY.

THE REMARK "TC" DENOTES TEMPERATURE IN DEGREES CELSIUS.

ALZ001>011-014-016>018-020-241000-
NORTH ALABAMA

CITY           SKY/WX    TMP DP  RH WIND       PRES   REMARKS
MUSCLE SHOALS  CLEAR     39  35  86 NW6       29.88R WCI  35
HUNTSVILLE     CLOUDY    45  37  73 NW8       29.85R
DECATUR        CLOUDY    43  38  82 NW7       29.86S
HALEYVILLE     FAIR      38  36  92 NW7       29.86F WCI  33
GADSDEN        CLOUDY    46  39  76 W6        29.84R
$$

ALZ012-013-022-023-030>036-040>044-241000-
WEST CENTRAL ALABAMA

CITY           SKY/WX    TMP DP  RH WIND       PRES   REMARKS
TUSCALOOSA     CLEAR     39  38  96 CALM      29.88S
$$

ALZ015-024>027-033>036-040>044-241000-
CENTRAL ALABAMA

CITY           SKY/WX    TMP DP  RH WIND       PRES   REMARKS
BIRMINGHAM     PTCLDY    43  39  86 NW6       29.87R
MONTGOMERY     CLOUDY    48  40  73 NW9       29.84S
SHELBY CO ARPT CLOUDY    45  40  82 NW10      29.85R
MAXWELL AFB    MOCLDY    46  42  83 NW6       29.83S
GREENVILLE     MOCLDY    45  39  79 NW8       29.84R
$$

ALZ019-021-028-029-037-038-045>048-241000-
EAST CENTRAL ALABAMA

CITY           SKY/WX    TMP DP  RH WIND       PRES   REMARKS
ANNISTON       CLOUDY    48  40  73 W9        29.82R
ALEXANDER CITY CLEAR     47  44  88 NW3       29.81S
AUBURN         CLEAR     45  41  86 NW7       29.81R
$$

ALZ051>064-241000-
SOUTHWEST ALABAMA

CITY           SKY/WX    TMP DP  RH WIND       PRES   REMARKS
MOBILE         CLEAR     46  42  86 NW6       29.91R
BROOKLEY FIELD CLEAR     49  44  83 NW8       29.91R
EVERGREEN      CLEAR     44  41  89 N5        29.87R
$$

ALZ049-050-065>069-241000-
SOUTHEAST ALABAMA

CITY           SKY/WX    TMP DP  RH WIND       PRES   REMARKS
DOTHAN         CLEAR     48  45  89 W8        29.85R
OZARK          CLEAR     48  44  86 NW5       29.82S
TROY           CLEAR     45  43  93 W6        29.83S
EUFAULA        FAIR      48  42  80 W6        29.80R
$$



USA.gov is the U.S. government's official web portal to all federal, state and local government web resources and services.